Location: Gro�bocka
(50.8204°N, 11.9702°E)
Time: 04:53:07
(UTC+00:00)

X-37B - Pass Details

Date: 26 June 2021
Orbit: 383 x 392 km, 45.0° (Epoch: 01 July)

Event Time Altitude Azimuth Distance (km) Brightness Sun altitude
Rises 20:48:27 0° 246° (WSW) 2,254 4.6 -9.1°
Reaches altitude 10° 20:50:41 10° 233° (SW) 1,401 3.4 -9.3°
Maximum altitude 20:53:25 27° 174° (S) 780 1.6 -9.5°
Enters shadow 20:55:54 11° 116° (ESE) 1,319 2.8 -9.7°
